[[{"header":{"parameterUnit":"m.s-1","parameterCategory":1,"la1":30.2991,"la2":30.254,"lo1":-89.0895,"lo2":-89.0444,"dy":0.0017,"dx":0.0017,"nx":28,"ny":28,"refTime":"2025-08-01T03:00:00:Z","depth":0,"parameterNumber":2,"parameterNumberName":"U-component_of_WINDS"},"data":[0,0,0,0,0,0,0,0,0,0,0,0,0,0,0,0,0,0,0,0,0,0,0,0,0,0,0,0,0,0,0,0,0,0,0,0,0,0,0,0,0,0,0,0,0,0,0,0,0,0,0,0,0,0,0,0,0,0,0.8423,0.8424,0,0.8517,0.8518,0.852,0.8511,0.8509,0.8508,0.8506,0.861,0.8614,0.8618,0,0,0,0,0,0,0,0,0,0,0,0,0,0.8244,0.8248,0.8423,0.8424,0.8426,0.8517,0.8519,0.852,0.8511,0.8509,0.8507,0.8506,0.8609,0.8614,0.8619,0,0,0,0,0,0,0,0,0,0,0,0,0,0.8329,0.8249,0.8423,0.8432,0.8434,0.8517,0.8519,0.852,0.8511,0.8509,0.8507,0.8505,0.8607,0.8613,0.862,0.8702,0,0,0.8639,0.8641,0,0,0,0,0,0,0,0,0.8324,0.8335,0.843,0.8432,0.8434,0.85,0.8494,0.8582,0.8512,0.8482,0.8506,0.8504,0.8576,0.8585,0.8607,0.8707,0.8712,0.8639,0.8643,0.8646,0.8647,0,0,0,0,0,0,0,0.8318,0.8331,0.8461,0.8431,0.8434,0.8434,0.8444,0.851,0.8541,0.8485,0.8484,0.8495,0.8577,0.8601,0.861,0.8713,0.8639,0.8644,0.8648,0.8651,0.8888,0.889,0,0,0,0,0,0,0.8309,0.8326,0.8458,0.8464,0.8372,0.8439,0.845,0.8481,0.854,0.8546,0.8497,0.8494,0.8592,0.8602,0.8613,0.8715,0.8645,0.8651,0.8655,0.8885,0.8888,0.8891,0,0,0,0,0,0,0.8305,0.8321,0.8454,0.8395,0.8412,0.8444,0.848,0.8484,0.8509,0.8549,0.8555,0.8516,0.859,0.8605,0.868,0.8719,0.8654,0.866,0.8882,0.8886,0.889,0.8919,0,0,0,0,0,0,0.83,0.8319,0.8349,0.8396,0.8415,0.8517,0.8482,0.8487,0.8518,0.8516,0.8568,0.8575,0.859,0.8671,0.8686,0.8726,0.8665,0.8879,0.8884,0.8889,0.8915,0.8923,0.8931,0,0,0,0,0,0.8294,0.8355,0.8351,0.8367,0.8452,0.8519,0.853,0.8544,0.8521,0.8553,0.8579,0.8573,0.8712,0.8679,0.8696,0.8738,0.8877,0.8883,0.8888,0.8911,0.8922,0.8931,0,0,0,0,0,0,0.8314,0.8361,0.8357,0.8434,0.8472,0.8517,0.8557,0.8554,0.8602,0.8598,0.8615,0.8627,0.8703,0.8728,0.8691,0.8823,0.8792,0.8801,0.8803,0.8814,0.8821,0.8814,0.867,0,0,0,0,0,0.8327,0.8375,0.8414,0.8479,0.8498,0.8524,0.8554,0.8561,0.8602,0.8619,0.8651,0.8693,0.8747,0.8781,0.8832,0.8918,0.8931,0.8956,0.8964,0.897,0.8979,0.9028,0.9041,0.891,0.891,0.891,0,0,0.8356,0.8387,0.8417,0.8484,0.8514,0.8566,0.8538,0.8594,0.8633,0.8628,0.8701,0.8726,0.8775,0.8856,0.8894,0.888,0.9018,0.8978,0.8983,0.8988,0.9036,0.9048,0.9059,0.8914,0.8913,0.8913,0,0,0.8434,0.8462,0.8519,0.855,0.8596,0.8613,0.8627,0.8672,0.8688,0.8761,0.8759,0.8808,0.8898,0.8934,0.8963,0.9056,0.9054,0.9073,0.9115,0.9163,0.9173,0.9183,0.9218,0.923,0.9081,0.9081,0.9081,0,0.8464,0.8539,0.855,0.8606,0.8637,0.8633,0.8693,0.8723,0.8784,0.8807,0.8789,0.8904,0.8937,0.9027,0.905,0.9073,0.9092,0.9067,0.917,0.918,0.9189,0.9223,0.9235,0.9083,0.9083,0.9083,0.9083,0,0.8575,0.8627,0.8669,0.8726,0.8761,0.8819,0.8841,0.8877,0.8881,0.8901,0.8977,0.9016,0.9075,0.9097,0.9103,0.919,0.9179,0.9166,0.9136,0.9203,0.9235,0.9248,0.9086,0.9085,0.9085,0.9084,0,0,0.8669,0.8731,0.8746,0.8772,0.8823,0.8865,0.8924,0.898,0.9011,0.9054,0.9106,0.9183,0.9171,0.9205,0.9215,0.9257,0.9331,0.9239,0.9241,0.9256,0.9431,0.9441,0.9456,0.9329,0.9331,0.9333,0.9427,0,0.8753,0.8854,0.8866,0.8958,0.9008,0.9006,0.9057,0.9096,0.9117,0.9164,0.9188,0.9243,0.9223,0.9243,0.9285,0.9313,0.9366,0.9306,0.938,0.9382,0.9368,0.9472,0.9483,0.9571,0.944,0.9442,0.9443,0,0.8864,0.8908,0.9004,0.9049,0.9071,0.9117,0.917,0.9215,0.926,0.9272,0.931,0.9315,0.9379,0.9345,0.9435,0.9394,0.9425,0.9444,0.9448,0.9456,0.9418,0.9485,0.9598,0.9612,0.9463,0.9461,0.946,0,0.8924,0.9008,0.9076,0.9099,0.9153,0.9186,0.9211,0.9253,0.9286,0.9334,0.9357,0.9412,0.9443,0.9487,0.9508,0.948,0.9597,0.9565,0.9612,0.9612,0.9637,0.9636,0.9759,0.9655,0.9655,0.9655,0.9654,0,0.9018,0.9077,0.9104,0.9147,0.9214,0.9229,0.9296,0.932,0.9358,0.9407,0.9409,0.9456,0.948,0.9531,0.9548,0.9621,0.9635,0.9649,0.9653,0.9649,0.9648,0.9671,0.9666,0.9658,0.9657,0.9657,0.9656,0,0.9096,0.9117,0.9192,0.9237,0.9249,0.9297,0.9337,0.938,0.94,0.9463,0.9478,0.9512,0.9572,0.9597,0.9672,0.9683,0.9768,0.9767,0.9752,0.9754,0.98,0.9796,0.9943,0.9964,0.9846,0.9847,0.9848,0,0.9155,0.92,0.925,0.9282,0.9307,0.9358,0.9392,0.941,0.9446,0.9501,0.9538,0.9597,0.9646,0.9744,0.9776,0.9834,0.9835,0.9883,0.9844,0.984,0.9838,0.9836,0.9841,0.989,0.9892,0.9893,0.9893,0,0.9257,0.9265,0.9312,0.9365,0.9405,0.9447,0.9488,0.9515,0.9539,0.958,0.964,0.9678,0.9754,0.9815,0.9875,0.9903,0.9904,0.9905,0.9919,0.9917,0.9907,0.9915,0.9773,0.9902,0.9901,0.99,0.99,0.99,0.9329,0.9369,0.9411,0.9465,0.9497,0.9536,0.9579,0.9604,0.9654,0.9716,0.9724,0.979,0.9836,0.9916,0.9947,1.0001,0.9989,1.0009,1.0015,1.002,1.0023,0.9897,1.0012,1.0011,1.0011,1.0011,1.0011,0,0.9432,0.9459,0.9508,0.9565,0.9608,0.9602,0.9648,0.9685,0.9742,0.9784,0.9832,0.9903,0.9962,1.0,1.006,1.0096,1.0098,1.0112,1.011,1.0117,1.003,1.0012,1.0109,1.0109,1.0109,1.0109,1.0109,1.0109,0.9491,0.956,0.9574,0.9661,0.9688,0.975,0.9778,0.9815,0.9848,0.9927,0.9975,0.9998,1.004,1.0103,1.0158,1.0168,1.0191,1.0205,1.0215,1.0133,1.0123,1.0113,1.0097,1.021,1.021,1.0298,1.0298,1.0299]},{"header":{"parameterUnit":"m.s-1","parameterCategory":1,"la1":30.2991,"la2":30.254,"lo1":-89.0895,"lo2":-89.0444,"dy":0.0017,"dx":0.0017,"nx":28,"ny":28,"refTime":"2025-08-01T03:00:00:Z","depth":0,"parameterNumber":3,"parameterNumberName":"V-component_of_WINDS"},"data":[0,0,0,0,0,0,0,0,0,0,0,0,0,0,0,0,0,0,0,0,0,0,0,0,0,0,0,0,0,0,0,0,0,0,0,0,0,0,0,0,0,0,0,0,0,0,0,0,0,0,0,0,0,0,0,0,0,0,4.046,4.046,0,4.0447,4.0447,4.0446,4.0457,4.0457,4.0458,4.0458,4.0441,4.044,4.0439,0,0,0,0,0,0,0,0,0,0,0,0,0,4.0491,4.049,4.046,4.046,4.0459,4.0447,4.0447,4.0446,4.0457,4.0457,4.0458,4.0458,4.0441,4.044,4.0439,0,0,0,0,0,0,0,0,0,0,0,0,0,4.0477,4.049,4.046,4.0463,4.0463,4.0447,4.0447,4.0446,4.0456,4.0457,4.0458,4.0458,4.0442,4.0441,4.0439,4.0418,0,0,4.0435,4.0435,0,0,0,0,0,0,0,0,4.0478,4.0476,4.0463,4.0463,4.0463,4.0454,4.0451,4.0437,4.0456,4.0459,4.0458,4.0459,4.0445,4.0443,4.0439,4.0417,4.0416,4.0435,4.0434,4.0434,4.0433,0,0,0,0,0,0,0,4.0479,4.0477,4.0454,4.0462,4.0463,4.0464,4.0463,4.0449,4.0448,4.0459,4.0459,4.0458,4.0445,4.044,4.0439,4.0416,4.0435,4.0434,4.0433,4.0433,4.0377,4.0376,0,0,0,0,0,0,4.048,4.0478,4.0455,4.0454,4.0473,4.0463,4.0462,4.0456,4.0448,4.0448,4.0457,4.0459,4.0442,4.044,4.0438,4.0413,4.0434,4.0433,4.0432,4.0378,4.0377,4.0376,0,0,0,0,0,0,4.0481,4.0478,4.0455,4.0466,4.0463,4.0462,4.0455,4.0456,4.0451,4.0447,4.0447,4.0453,4.0443,4.044,4.0423,4.0413,4.0432,4.0431,4.0378,4.0377,4.0376,4.0363,0,0,0,0,0,0,4.0482,4.0478,4.047,4.0466,4.0463,4.0441,4.0455,4.0455,4.0449,4.0451,4.0443,4.0443,4.0443,4.0425,4.0422,4.0411,4.043,4.0379,4.0378,4.0377,4.0364,4.0361,4.0359,0,0,0,0,0,4.0483,4.0466,4.047,4.0467,4.0453,4.0441,4.0439,4.0441,4.0448,4.044,4.0438,4.0443,4.0415,4.0423,4.042,4.0409,4.038,4.0378,4.0377,4.0365,4.0362,4.0359,0,0,0,0,0,0,4.0467,4.0465,4.047,4.0451,4.0446,4.0442,4.0432,4.0437,4.0428,4.043,4.0432,4.043,4.0412,4.0409,4.0419,4.0388,4.0399,4.0396,4.0391,4.0388,4.0385,4.0386,4.0429,0,0,0,0,0,4.0462,4.0453,4.0452,4.0435,4.0433,4.0433,4.0428,4.043,4.0424,4.0422,4.0418,4.0412,4.0402,4.0394,4.0385,4.0364,4.0363,4.0355,4.0352,4.035,4.0348,4.0337,4.0334,4.0371,4.0371,4.0371,0,0,4.0451,4.0449,4.0442,4.0432,4.0429,4.0419,4.0431,4.0419,4.0412,4.0419,4.0404,4.0401,4.0394,4.0376,4.0367,4.0372,4.0338,4.0348,4.0347,4.0345,4.0336,4.0332,4.0329,4.037,4.037,4.037,0,0,4.0425,4.0422,4.0409,4.0406,4.0401,4.0402,4.0399,4.0394,4.0393,4.0378,4.0384,4.0375,4.0357,4.0352,4.0347,4.0322,4.0326,4.0318,4.0305,4.0295,4.0292,4.0289,4.028,4.0277,4.0316,4.0316,4.0316,0,4.0411,4.0397,4.0401,4.039,4.0386,4.0394,4.0381,4.0377,4.0368,4.0365,4.0371,4.035,4.0346,4.0326,4.0321,4.0316,4.0313,4.0319,4.0292,4.0289,4.0287,4.0279,4.0275,4.0315,4.0316,4.0316,4.0316,0,4.038,4.037,4.036,4.0354,4.0348,4.0336,4.0338,4.0332,4.0335,4.0335,4.032,4.0315,4.0305,4.0301,4.0303,4.0282,4.0286,4.0292,4.0302,4.0283,4.0275,4.0271,4.0314,4.0315,4.0315,4.0315,0,0,4.0342,4.0341,4.0337,4.0334,4.0331,4.0323,4.0311,4.0303,4.0298,4.0292,4.0282,4.0268,4.0274,4.0269,4.027,4.0262,4.0242,4.0269,4.0269,4.0264,4.022,4.0215,4.0211,4.0246,4.0245,4.0245,4.022,0,4.0316,4.0297,4.0302,4.0282,4.0274,4.0282,4.0272,4.0268,4.0268,4.0261,4.026,4.025,4.0259,4.0256,4.0248,4.0246,4.0233,4.0248,4.0236,4.0235,4.0237,4.0207,4.0201,4.0179,4.0217,4.0217,4.0216,0,4.0283,4.0278,4.0258,4.0257,4.0254,4.0245,4.0238,4.0231,4.0227,4.0228,4.0223,4.0227,4.0215,4.0226,4.021,4.022,4.0215,4.0214,4.0213,4.0212,4.0224,4.0204,4.0172,4.0168,4.0211,4.0212,4.0212,0,4.0258,4.0246,4.0233,4.0231,4.0229,4.0223,4.0222,4.0219,4.0214,4.0208,4.0205,4.0198,4.0193,4.0187,4.0189,4.0197,4.0173,4.0184,4.0172,4.0172,4.0166,4.0166,4.0132,4.0164,4.0164,4.0164,4.0164,0,4.0228,4.0215,4.0222,4.0214,4.02,4.0206,4.0192,4.0192,4.0189,4.0181,4.0188,4.018,4.0183,4.0175,4.0177,4.0163,4.0161,4.0161,4.0162,4.016,4.016,4.0157,4.0158,4.0163,4.0163,4.0163,4.0163,0,4.0197,4.0201,4.0187,4.0188,4.0188,4.0178,4.0178,4.017,4.0171,4.0161,4.0159,4.016,4.0152,4.0154,4.0143,4.0144,4.0128,4.013,4.0129,4.013,4.0118,4.0119,4.008,4.0075,4.011,4.011,4.0109,0,4.0177,4.0168,4.0168,4.0164,4.0163,4.0156,4.0152,4.0157,4.0152,4.0148,4.0141,4.0134,4.0127,4.0113,4.0113,4.0106,4.0108,4.0095,4.0106,4.0106,4.0108,4.0108,4.0107,4.0092,4.0091,4.0091,4.0091,0,4.0142,4.0145,4.0139,4.0135,4.013,4.0127,4.0124,4.0119,4.0125,4.0119,4.0111,4.0107,4.0098,4.009,4.0084,4.0082,4.0087,4.0087,4.0084,4.0083,4.0083,4.0083,4.0122,4.0088,4.0088,4.0088,4.0089,4.0089,4.0116,4.0109,4.0108,4.0102,4.0101,4.0098,4.0092,4.0093,4.0087,4.0081,4.0085,4.0075,4.0073,4.0065,4.0063,4.0056,4.006,4.0056,4.0055,4.0053,4.0052,4.0085,4.0054,4.0054,4.0054,4.0055,4.0055,0,4.0081,4.0082,4.0076,4.0073,4.0068,4.0076,4.0073,4.0068,4.0061,4.0059,4.0054,4.0045,4.0038,4.0038,4.0032,4.0026,4.0028,4.0024,4.0024,4.0024,4.0048,4.0051,4.0022,4.0022,4.0022,4.0022,4.0022,4.0022,4.0062,4.0051,4.0054,4.0043,4.0043,4.0035,4.0033,4.0031,4.003,4.002,4.0015,4.0016,4.0015,4.0009,4.0003,4.0003,4.0,3.9995,3.9996,4.0019,4.0022,4.0025,4.0028,3.9994,3.9994,3.9972,3.9972,3.9972]}]]